User: anonymous   Login
Location: The Jewett Observatory
(46.7288°N, 117.1525°W)
Time: 20:21:13
(UTC-07:00)
Language:

Cosmos 1633 - Orbit

View from above orbital plane
View from above orbital plane
View from above satellite
View from above satellite

Ground track
Ground track

The orbit data is extracted from the following two-line orbital elements,

1 15592U 85020A   16119.89762295 +.00002518 +00000-0 +94258-4 0  9991
2 15592 082.5406 013.8802 0013775 193.9901 166.0958 15.26741047700768
Epoch (UTC): 28 April 2016 21:32:34
Eccentricity: 0.0013775
inclination: 82.5406°
perigee height: 476 km
apogee height: 495 km
right ascension of ascending node: 13.8802°
argument of perigee: 193.9901°
revolutions per day: 15.26741047
mean anomaly at epoch: 166.0958°
orbit number at epoch: 70076

The dashed part of the orbit path shows where the satellite is in the earth's shadow,  

DLR